Powrót do katalogu

NOAA 16 DEB

AktywnyPO
NORAD 41406·DEBRIS·🇺🇸 United States

Wystrzelony Sep 21, 2000 z Vandenberg Space Force Base

Loading…

Następne Przeloty (najbliższe 24 godziny)

TLE

ŚwieżeSource: Space-Track

Epoka: Sep 13, 2026, 02:05 UTC

1 41406U 00055KK  26256.08682217  .00004603  00000-0  10043-2 0  9993
2 41406  98.9480 117.8192 0028095 134.0745 226.2771 14.58154864551624

Śledź NOAA 16 DEB w czasie rzeczywistym z AllMySat

Download on the App Store